Games (58053 matching)

Reset
Game Time Format Seats Bracket Locale User Name User ID Jump
SB#559782 1713712990600.928 Commander 4 None en Yakbop 137799183389163520 Jump to game
SB#559782 1713712990600.928 Commander 4 None en Mapo 234015313815928832 Jump to game
SB#559782 1713712990600.928 Commander 4 None en Kineticpop 252231905422868480 Jump to game
SB#559782 1713712990600.928 Commander 4 None en Matches 692188438543204403 Jump to game
SB#559767 1713709364584.466 Commander 4 None en Yakbop 137799183389163520 Jump to game
SB#559767 1713709364584.466 Commander 4 None en Kineticpop 252231905422868480 Jump to game
SB#559767 1713709364584.466 Commander 4 None en Sqrlly(Ted) 326195025488642048 Jump to game
SB#559767 1713709364584.466 Commander 4 None en Matches 692188438543204403 Jump to game
SB#559751 1713708573154.0151 Commander 4 None en Brewmaster 200440962902786048 Jump to game
SB#559751 1713708573154.0151 Commander 4 None en D4rkRitu4l 339742449100652554 Jump to game
SB#559751 1713708573154.0151 Commander 4 None en corksters 759956344526209024 Jump to game
SB#559751 1713708573154.0151 Commander 4 None en Zorz 941364208581374004 Jump to game
SB#559732 1713704617955.834 Commander 4 None en Greater 137251068525412352 Jump to game
SB#559732 1713704617955.834 Commander 4 None en Taturo 140120801310408704 Jump to game
SB#559732 1713704617955.834 Commander 4 None en samielsamson 272671331634642945 Jump to game
SB#559732 1713704617955.834 Commander 4 None en toast 442670021714509844 Jump to game
SB#559622 1713678390127.234 Commander 4 None en Thechilly1 244181419696455681 Jump to game
SB#559622 1713678390127.234 Commander 4 None en Durindael 462864149223964672 Jump to game
SB#559622 1713678390127.234 Commander 4 None en MBrandybuck 730588228356145152 Jump to game
SB#559622 1713678390127.234 Commander 4 None en Delekhan 879878805857140737 Jump to game
SB#559596 1713674150709.7139 Commander 4 None en DERO 151072713337733121 Jump to game
SB#559596 1713674150709.7139 Commander 4 None en Waffle Party 170801973598093312 Jump to game
SB#559596 1713674150709.7139 Commander 4 None en Lil CLOUD 338541609706586112 Jump to game
SB#559596 1713674150709.7139 Commander 4 None en JoyfulMelancholy 1126039182637281375 Jump to game
SB#559579 1713671052357.456 Commander 4 None en rockmosh 136098259574849536 Jump to game
SB#559579 1713671052357.456 Commander 4 None en CommanderViral 177143202241970176 Jump to game
SB#559579 1713671052357.456 Commander 4 None en Joel 192086801949655041 Jump to game
SB#559579 1713671052357.456 Commander 4 None en Legitimate Businessperson 625479095924424714 Jump to game
Export all (CSV) Previous page Next page